Location: Unspecified
(52.4292°N, 19.3359°E)
Time: 23:41:08
(UTC+02:00)

Altair - Pass Details

Date: 27 May 2024
Orbit: 1502 x 1682 km, 47.2° (Epoch: 19 June)

Event Time Altitude Azimuth Distance (km) Brightness Sun altitude
Rises 16:21:14 0° 287° (WNW) 4,922 10.9 37.8°
Reaches altitude 10° 16:25:05 10° 275° (W) 3,942 10.8 37.2°
Maximum altitude 16:32:46 26° 226° (SW) 2,897 10.2 36.1°
Drops below altitude 10° 16:40:26 10° 175° (S) 3,918 9.8 34.9°
Sets 16:44:16 0° 164° (SSE) 4,886 10.1 34.3°
